,,,PA_Meas_PMT16A,,PR_Meas_QMR101_102,,RH_Meas_QMH101,,SR_Meas_QMS101,,TA_Meas_QMH101,,GenWind,,GenWind,
date,time,status,PA,status,PR,status,RH,status,SR,status,TA,status,DirAvg,status,SpdAvg,
2011-05-15, 00:00:04,VALID,1005.11,VALID,0,INVALID,163.632,VALID,0,VALID,25.6311,VALID,306,VALID,0.815234,
2011-05-15, 00:01:04,VALID,1005.07,VALID,0,INVALID,163.632,VALID,0,VALID,25.6681,VALID,321,VALID,0.772656,
2011-05-15, 00:02:04,VALID,1005.08,VALID,0,INVALID,163.609,VALID,0,VALID,25.7655,VALID,316,VALID,0.289844,
2011-05-15, 00:03:04,VALID,1005.09,VALID,0,INVALID,163.632,VALID,0,VALID,25.8453,VALID,347,VALID,0.617188,
2011-05-15, 00:04:04,VALID,1005.09,VALID,0,INVALID,163.578,VALID,0,VALID,25.8453,VALID,347,VALID,0.385547,
2011-05-15, 00:05:04,VALID,1005.07,VALID,0,INVALID,163.624,VALID,0,VALID,25.8259,VALID,10,VALID,0.670703,
2011-05-15, 00:06:04,VALID,1005.08,VALID,0,INVALID,163.609,VALID,0,VALID,25.746,VALID,10,VALID,0.542578,
2011-05-15, 00:07:04,VALID,1005.1,VALID,0,INVALID,163.639,VALID,0,VALID,25.6876,VALID,10,VALID,0.394531,
2011-05-15, 00:08:04,VALID,1005.09,VALID,0,INVALID,163.624,VALID,0,VALID,25.6506,VALID,3,VALID,0.670703,
2011-05-15, 00:09:04,VALID,1005.1,VALID,0,INVALID,163.624,VALID,0,VALID,25.6311,VALID,3,VALID,0.4375,
2011-05-15, 00:10:04,VALID,1005.1,VALID,0,INVALID,163.624,VALID,0,VALID,25.6116,VALID,3,VALID,0.503906,
2011-05-15, 00:11:04,VALID,1005.05,VALID,0,INVALID,163.632,VALID,0,VALID,25.5532,VALID,3,VALID,0.381641,
2011-05-15, 00:12:04,VALID,1005.04,VALID,0,INVALID,163.624,VALID,0,VALID,25.5142,VALID,3,VALID,0.180469,
2011-05-15, 00:13:04,VALID,1005.05,VALID,0,INVALID,163.609,VALID,0,VALID,25.5142,VALID,3,VALID,0,
2011-05-15, 00:14:04,VALID,1005.02,VALID,0,INVALID,163.662,VALID,0,VALID,25.5142,VALID,3,VALID,0.422656,
2011-05-15, 00:15:04,VALID,1005.05,VALID,0,INVALID,163.647,VALID,0,VALID,25.4734,VALID,3,VALID,0.377344,
2011-05-15, 00:16:04,VALID,1005.04,VALID,0,INVALID,163.639,VALID,0,VALID,25.4948,VALID,3,VALID,0.228906,
2011-05-15, 00:17:04,VALID,1005.04,VALID,0,INVALID,163.624,VALID,0,VALID,25.4325,VALID,3,VALID,0.0582031,
2011-05-15, 00:18:04,VALID,1005.05,VALID,0,INVALID,163.624,VALID,0,VALID,25.4948,VALID,3,VALID,0.0863281,
2011-05-15, 00:19:04,VALID,1005.02,VALID,0,INVALID,163.655,VALID,0,VALID,25.4734,VALID,3,VALID,0.148828,
2011-05-15, 00:20:04,VALID,1005.04,VALID,0,INVALID,163.632,VALID,0,VALID,25.4928,VALID,3,VALID,0.0945313,
2011-05-15, 00:21:04,VALID,1005.01,VALID,0,INVALID,163.655,VALID,0,VALID,25.4928,VALID,3,VALID,0.225391,
2011-05-15, 00:22:04,VALID,1005,VALID,0,INVALID,163.632,VALID,0,VALID,25.5337,VALID,2,VALID,0.141016,
2011-05-15, 00:23:04,VALID,1005,VALID,0,INVALID,163.609,VALID,0,VALID,25.5532,VALID,2,VALID,0.548047,
2011-05-15, 00:24:04,VALID,1004.99,VALID,0,INVALID,163.624,VALID,0,VALID,25.5142,VALID,2,VALID,0.459766,
2011-05-15, 00:25:04,VALID,1005,VALID,0,INVALID,163.632,VALID,0,VALID,25.4753,VALID,2,VALID,0.770703,
2011-05-15, 00:26:04,VALID,1004.99,VALID,0,INVALID,163.632,VALID,0,VALID,25.4149,VALID,1,VALID,0.139062,
2011-05-15, 00:27:04,VALID,1004.95,VALID,0,INVALID,163.647,VALID,0,VALID,25.4363,VALID,1,VALID,0.385938,
2011-05-15, 00:28:04,VALID,1004.94,VALID,0,INVALID,163.639,VALID,0,VALID,25.4363,VALID,1,VALID,0.0480469,
2011-05-15, 00:29:04,VALID,1004.91,VALID,0,INVALID,163.655,VALID,0,VALID,25.4169,VALID,1,VALID,0.251563,
2011-05-15, 00:30:04,VALID,1004.92,VALID,0,INVALID,163.639,VALID,0,VALID,25.4363,VALID,1,VALID,0.200391,
2011-05-15, 00:31:04,VALID,1004.88,VALID,0,INVALID,163.655,VALID,0,VALID,25.4149,VALID,1,VALID,0.119141,
2011-05-15, 00:32:04,VALID,1004.87,VALID,0,INVALID,163.594,VALID,0,VALID,25.4149,VALID,1,VALID,0.153516,
2011-05-15, 00:33:04,VALID,1004.88,VALID,0,INVALID,163.662,VALID,0,VALID,25.4149,VALID,1,VALID,0.101172,
2011-05-15, 00:34:04,VALID,1004.88,VALID,0,INVALID,163.632,VALID,0,VALID,25.4149,VALID,1,VALID,0.3625,
2011-05-15, 00:35:04,VALID,1004.85,VALID,0,INVALID,163.655,VALID,0,VALID,25.4149,VALID,1,VALID,0.612891,
2011-05-15, 00:36:04,VALID,1004.83,VALID,0,INVALID,163.624,VALID,0,VALID,25.4363,VALID,1,VALID,0.370313,
2011-05-15, 00:37:04,VALID,1004.8,VALID,0,INVALID,163.624,VALID,0,VALID,25.4149,VALID,1,VALID,0.524219,
2011-05-15, 00:38:04,VALID,1004.77,VALID,0,INVALID,163.632,VALID,0,VALID,25.4363,VALID,360,VALID,0.552734,
2011-05-15, 00:39:04,VALID,1004.74,VALID,0,INVALID,163.617,VALID,0,VALID,25.4169,VALID,357,VALID,0.492578,
2011-05-15, 00:40:04,VALID,1004.77,VALID,0,INVALID,163.632,VALID,0,VALID,25.4149,VALID,351,VALID,0.245312,
2011-05-15, 00:41:04,VALID,1004.76,VALID,0,INVALID,163.624,VALID,0,VALID,25.4344,VALID,351,VALID,0.227734,
2011-05-15, 00:42:04,VALID,1004.78,VALID,0,INVALID,163.655,VALID,0,VALID,25.4948,VALID,351,VALID,0.0429688,
2011-05-15, 00:43:04,VALID,1004.76,VALID,0,INVALID,163.609,VALID,0,VALID,25.5142,VALID,335,VALID,0.330078,
2011-05-15, 00:44:04,VALID,1004.74,VALID,0,INVALID,163.647,VALID,0,VALID,25.5142,VALID,335,VALID,0,
2011-05-15, 00:45:04,VALID,1004.75,VALID,0,INVALID,163.639,VALID,0,VALID,25.5123,VALID,335,VALID,0.0566406,
2011-05-15, 00:46:04,VALID,1004.73,VALID,0,INVALID,163.639,VALID,0,VALID,25.5142,VALID,335,VALID,0.107031,
2011-05-15, 00:47:04,VALID,1004.7,VALID,0,INVALID,163.601,VALID,0,VALID,25.4928,VALID,335,VALID,0,
2011-05-15, 00:48:04,VALID,1004.71,VALID,0,INVALID,163.624,VALID,0,VALID,25.5551,VALID,335,VALID,0,
2011-05-15, 00:49:04,VALID,1004.68,VALID,0,INVALID,163.624,VALID,0,VALID,25.5123,VALID,335,VALID,0.209766,
2011-05-15, 00:50:04,VALID,1004.68,VALID,0,INVALID,163.639,VALID,0,VALID,25.5123,VALID,335,VALID,0.0835937,
2011-05-15, 00:51:04,VALID,1004.7,VALID,0,INVALID,163.624,VALID,0,VALID,25.5532,VALID,253,VALID,0.6,
2011-05-15, 00:52:04,VALID,1004.7,VALID,0,INVALID,163.594,VALID,0,VALID,25.5532,VALID,214,VALID,0.338281,
2011-05-15, 00:53:04,VALID,1004.7,VALID,0,INVALID,163.639,VALID,0,VALID,25.5318,VALID,215,VALID,0.329297,
2011-05-15, 00:54:04,VALID,1004.67,VALID,0,INVALID,163.609,VALID,0,VALID,25.5921,VALID,359,VALID,0.636719,
2011-05-15, 00:55:04,VALID,1004.67,VALID,0,INVALID,163.639,VALID,0,VALID,25.6292,VALID,354,VALID,0.314063,
2011-05-15, 00:56:04,VALID,1004.64,VALID,0,INVALID,163.624,VALID,0,VALID,25.6915,VALID,303,VALID,0.642187,
2011-05-15, 00:57:04,VALID,1004.64,VALID,0,INVALID,163.609,VALID,0,VALID,25.748,VALID,311,VALID,0.620703,
2011-05-15, 00:58:04,VALID,1004.6,VALID,0,INVALID,163.624,VALID,0,VALID,25.8239,VALID,311,VALID,0.33125,
2011-05-15, 00:59:04,VALID,1004.58,VALID,0,INVALID,163.632,VALID,0,VALID,25.8823,VALID,359,VALID,0.516797,
2011-05-15, 01:00:04,VALID,1004.58,VALID,0,INVALID,163.617,VALID,0,VALID,25.9213,VALID,360,VALID,0.686719,
2011-05-15, 01:01:04,VALID,1004.52,VALID,0,INVALID,163.601,VALID,0.100563,VALID,25.9602,VALID,360,VALID,0.272266,
2011-05-15, 01:02:04,VALID,1004.52,VALID,0,INVALID,163.617,VALID,0,VALID,25.9602,VALID,329,VALID,0.394531,
2011-05-15, 01:03:04,VALID,1004.5,VALID,0,INVALID,163.601,VALID,0,VALID,25.9797,VALID,358,VALID,0.732422,
2011-05-15, 01:04:04,VALID,1004.51,VALID,0,INVALID,163.594,VALID,0,VALID,25.9777,VALID,346,VALID,0.470703,
2011-05-15, 01:05:04,VALID,1004.49,VALID,0,INVALID,163.594,VALID,0,VALID,26.0187,VALID,346,VALID,0.0617188,
2011-05-15, 01:06:04,VALID,1004.47,VALID,0,INVALID,163.594,VALID,0,VALID,26.0187,VALID,346,VALID,0.307031,
2011-05-15, 01:07:04,VALID,1004.46,VALID,0,INVALID,163.594,VALID,0,VALID,25.9972,VALID,346,VALID,0.0234375,
2011-05-15, 01:08:04,VALID,1004.4,VALID,0,INVALID,163.617,VALID,0,VALID,26.0206,VALID,346,VALID,0.259375,
2011-05-15, 01:09:04,VALID,1004.44,VALID,0,INVALID,163.609,VALID,0,VALID,25.9777,VALID,346,VALID,0.275781,
2011-05-15, 01:10:04,VALID,1004.44,VALID,0,INVALID,163.586,VALID,0,VALID,25.9388,VALID,347,VALID,0.365625,
2011-05-15, 01:11:04,VALID,1004.4,VALID,0,INVALID,163.601,VALID,0,VALID,25.9622,VALID,280,VALID,0.150391,
2011-05-15, 01:12:04,VALID,1004.42,VALID,0,INVALID,163.617,VALID,0.100563,VALID,25.9213,VALID,280,VALID,0,
2011-05-15, 01:13:04,VALID,1004.4,VALID,0,INVALID,163.617,VALID,0.100563,VALID,25.9018,VALID,280,VALID,0.353906,
2011-05-15, 01:14:04,VALID,1004.41,VALID,0,INVALID,163.594,VALID,0,VALID,25.8843,VALID,350,VALID,0.423438,
2011-05-15, 01:15:04,VALID,1004.38,VALID,0,INVALID,163.609,VALID,0,VALID,25.9038,VALID,346,VALID,0.0957031,
2011-05-15, 01:16:04,VALID,1004.39,VALID,0,INVALID,163.586,VALID,0,VALID,25.8609,VALID,346,VALID,0,
2011-05-15, 01:17:04,VALID,1004.35,VALID,0,INVALID,163.601,VALID,0,VALID,25.9057,VALID,346,VALID,0.144141,
2011-05-15, 01:18:04,VALID,1004.34,VALID,0,INVALID,163.609,VALID,0,VALID,25.8629,VALID,346,VALID,0,
2011-05-15, 01:19:04,VALID,1004.36,VALID,0,INVALID,163.601,VALID,0,VALID,25.8453,VALID,346,VALID,0.208203,
2011-05-15, 01:20:04,VALID,1004.34,VALID,0,INVALID,163.609,VALID,0,VALID,25.8434,VALID,347,VALID,0.297656,
2011-05-15, 01:21:04,VALID,1004.32,VALID,0,INVALID,163.594,VALID,0,VALID,25.8473,VALID,347,VALID,0,
2011-05-15, 01:22:04,VALID,1004.3,VALID,0,INVALID,163.609,VALID,0,VALID,25.785,VALID,347,VALID,0,
2011-05-15, 01:23:04,VALID,1004.26,VALID,0,INVALID,163.617,VALID,0,VALID,25.7655,VALID,347,VALID,0,
2011-05-15, 01:24:04,VALID,1004.25,VALID,0,INVALID,163.624,VALID,0,VALID,25.7674,VALID,347,VALID,0,
2011-05-15, 01:25:04,VALID,1004.24,VALID,0,INVALID,163.609,VALID,0,VALID,25.709,VALID,347,VALID,0,
2011-05-15, 01:26:04,VALID,1004.24,VALID,0,INVALID,163.617,VALID,0,VALID,25.6895,VALID,347,VALID,0,
2011-05-15, 01:27:04,VALID,1004.22,VALID,0,INVALID,163.624,VALID,0,VALID,25.67,VALID,347,VALID,0,
2011-05-15, 01:28:04,VALID,1004.21,VALID,0,INVALID,163.617,VALID,0,VALID,25.6097,VALID,347,VALID,0,
2011-05-15, 01:29:04,VALID,1004.18,VALID,0,INVALID,163.632,VALID,0,VALID,25.6311,VALID,347,VALID,0,
2011-05-15, 01:30:04,VALID,1004.14,VALID,0,INVALID,163.624,VALID,0,VALID,25.6116,VALID,346,VALID,0.226563,
2011-05-15, 01:31:04,VALID,1004.13,VALID,0,INVALID,163.617,VALID,0,VALID,25.5921,VALID,346,VALID,0,
2011-05-15, 01:32:04,VALID,1004.14,VALID,0,INVALID,163.632,VALID,0,VALID,25.5921,VALID,346,VALID,0.301172,
2011-05-15, 01:33:04,VALID,1004.09,VALID,0,INVALID,163.617,VALID,0,VALID,25.5902,VALID,344,VALID,0.302734,
2011-05-15, 01:34:04,VALID,1004.07,VALID,0,INVALID,163.617,VALID,0,VALID,25.6292,VALID,344,VALID,0.292969,
2011-05-15, 01:35:04,VALID,1004.07,VALID,0,INVALID,163.609,VALID,0,VALID,25.6915,VALID,347,VALID,0.286719,
2011-05-15, 01:36:04,VALID,1004.04,VALID,0,INVALID,163.617,VALID,0,VALID,25.6876,VALID,350,VALID,0.292969,
2011-05-15, 01:37:04,VALID,1004,VALID,0,INVALID,163.617,VALID,0,VALID,25.709,VALID,349,VALID,0.242578,
2011-05-15, 01:38:04,VALID,1003.97,VALID,0,INVALID,163.609,VALID,0,VALID,25.748,VALID,349,VALID,0.327344,
2011-05-15, 01:39:04,VALID,1003.92,VALID,0,INVALID,163.594,VALID,0,VALID,25.7674,VALID,349,VALID,0.351953,
2011-05-15, 01:40:04,VALID,1003.89,VALID,0,INVALID,163.594,VALID,0,VALID,25.7869,VALID,349,VALID,0.450391,
2011-05-15, 01:41:04,VALID,1003.88,VALID,0,INVALID,163.632,VALID,0,VALID,25.8064,VALID,357,VALID,0.339063,
2011-05-15, 01:42:04,VALID,1003.86,VALID,0,INVALID,163.609,VALID,0,VALID,25.7869,VALID,357,VALID,0.149219,
2011-05-15, 01:43:04,VALID,1003.86,VALID,0,INVALID,163.594,VALID,0,VALID,25.785,VALID,329,VALID,0.673437,
2011-05-15, 01:44:04,VALID,1003.85,VALID,0,INVALID,163.601,VALID,0,VALID,25.8434,VALID,322,VALID,0.6,
2011-05-15, 01:45:04,VALID,1003.89,VALID,0,INVALID,163.609,VALID,0,VALID,25.8823,VALID,264,VALID,0.138672,
2011-05-15, 01:46:04,VALID,1003.88,VALID,0,INVALID,163.609,VALID,0,VALID,25.9213,VALID,360,VALID,0.683203,
2011-05-15, 01:47:04,VALID,1003.89,VALID,0,INVALID,163.594,VALID,0,VALID,25.9817,VALID,360,VALID,0.224609,
2011-05-15, 01:48:04,VALID,1003.87,VALID,0,INVALID,163.594,VALID,0,VALID,26.0012,VALID,360,VALID,0.00351562,
2011-05-15, 01:49:04,VALID,1003.87,VALID,0,INVALID,163.586,VALID,0,VALID,26.0187,VALID,272,VALID,1.3582,
2011-05-15, 01:50:04,VALID,1003.86,VALID,0,INVALID,163.601,VALID,0,VALID,26.0985,VALID,317,VALID,0.667578,
2011-05-15, 01:51:04,VALID,1003.85,VALID,0,INVALID,163.571,VALID,0,VALID,26.1765,VALID,343,VALID,0.190625,
2011-05-15, 01:52:04,VALID,1003.84,VALID,0,INVALID,163.586,VALID,0,VALID,26.1959,VALID,349,VALID,0.667578,
2011-05-15, 01:53:04,VALID,1003.86,VALID,0,INVALID,163.601,VALID,0,VALID,26.194,VALID,348,VALID,0.523438,
2011-05-15, 01:54:04,VALID,1003.85,VALID,0,INVALID,163.586,VALID,0,VALID,26.2134,VALID,348,VALID,0.495313,
2011-05-15, 01:55:04,VALID,1003.82,VALID,0,INVALID,163.571,VALID,0,VALID,26.2154,VALID,351,VALID,0.847266,
2011-05-15, 01:56:04,VALID,1003.85,VALID,0,INVALID,163.586,VALID,0,VALID,26.2154,VALID,358,VALID,0.719141,
2011-05-15, 01:57:04,VALID,1003.8,VALID,0,INVALID,163.578,VALID,0,VALID,26.2154,VALID,350,VALID,0.688672,
2011-05-15, 01:58:04,VALID,1003.81,VALID,0,INVALID,163.601,VALID,0,VALID,26.2154,VALID,304,VALID,0.551562,
2011-05-15, 01:59:04,VALID,1003.81,VALID,0,INVALID,163.578,VALID,0,VALID,26.1745,VALID,351,VALID,0.394922,
2011-05-15, 02:00:04,VALID,1003.8,VALID,0,INVALID,163.609,VALID,0,VALID,26.1745,VALID,5,VALID,0.346484,
2011-05-15, 02:01:04,VALID,1003.79,VALID,0,INVALID,163.571,VALID,0,VALID,26.1355,VALID,351,VALID,0.724609,
2011-05-15, 02:02:04,VALID,1003.78,VALID,0,INVALID,163.563,VALID,0,VALID,26.157,VALID,14,VALID,0.210938,
2011-05-15, 02:03:04,VALID,1003.78,VALID,0,INVALID,163.586,VALID,0,VALID,26.116,VALID,299,VALID,0.560156,
2011-05-15, 02:04:04,VALID,1003.75,VALID,0,INVALID,163.601,VALID,0,VALID,26.1375,VALID,286,VALID,0.2875,
2011-05-15, 02:05:04,VALID,1003.77,VALID,0,INVALID,163.571,VALID,0,VALID,26.118,VALID,359,VALID,0.225781,
2011-05-15, 02:06:04,VALID,1003.79,VALID,0,INVALID,163.586,VALID,0,VALID,26.0985,VALID,359,VALID,0.152734,
2011-05-15, 02:07:04,VALID,1003.8,VALID,0,INVALID,163.586,VALID,0,VALID,26.0771,VALID,279,VALID,0.337109,
2011-05-15, 02:08:04,VALID,1003.84,VALID,0,INVALID,163.578,VALID,0,VALID,26.0791,VALID,358,VALID,0.845703,
2011-05-15, 02:09:04,VALID,1003.85,VALID,0,INVALID,163.594,VALID,0,VALID,26.0771,VALID,348,VALID,1.00234,
2011-05-15, 02:10:04,VALID,1003.83,VALID,0,INVALID,163.586,VALID,0,VALID,26.0771,VALID,338,VALID,0.378516,
2011-05-15, 02:11:04,VALID,1003.81,VALID,0,INVALID,163.586,VALID,0,VALID,26.0985,VALID,355,VALID,0.653906,
2011-05-15, 02:12:04,VALID,1003.84,VALID,0,INVALID,163.586,VALID,0,VALID,26.0985,VALID,332,VALID,0.504297,
2011-05-15, 02:13:04,VALID,1003.82,VALID,0,INVALID,163.594,VALID,0,VALID,26.0576,VALID,341,VALID,0.315625,
2011-05-15, 02:14:04,VALID,1003.82,VALID,0,INVALID,163.586,VALID,0,VALID,26.0576,VALID,285,VALID,0.598047,
2011-05-15, 02:15:04,VALID,1003.81,VALID,0,INVALID,163.586,VALID,0,VALID,26.0596,VALID,286,VALID,0.374609,
2011-05-15, 02:16:04,VALID,1003.82,VALID,0,INVALID,163.594,VALID,0,VALID,26.0187,VALID,310,VALID,0.394922,
2011-05-15, 02:17:04,VALID,1003.86,VALID,0,INVALID,163.594,VALID,0,VALID,26.0012,VALID,318,VALID,0.090625,
2011-05-15, 02:18:04,VALID,1003.88,VALID,0,INVALID,163.609,VALID,0,VALID,25.9817,VALID,318,VALID,0.00078125,
2011-05-15, 02:19:04,VALID,1003.88,VALID,0,INVALID,163.617,VALID,0,VALID,25.9817,VALID,303,VALID,0.371094,
2011-05-15, 02:20:04,VALID,1003.9,VALID,0,INVALID,163.578,VALID,0,VALID,25.9992,VALID,305,VALID,0,
2011-05-15, 02:21:04,VALID,1003.9,VALID,0,INVALID,163.563,VALID,0.100563,VALID,26.081,VALID,305,VALID,0.0410156,
2011-05-15, 02:22:04,VALID,1003.91,VALID,0,INVALID,163.556,VALID,0,VALID,26.0401,VALID,345,VALID,0.619531,
2011-05-15, 02:23:04,VALID,1003.9,VALID,0,INVALID,163.586,VALID,0,VALID,26.0206,VALID,344,VALID,0.525,
2011-05-15, 02:24:04,VALID,1003.92,VALID,0,INVALID,163.594,VALID,0,VALID,26.0206,VALID,344,VALID,0.291016,
2011-05-15, 02:25:04,VALID,1003.88,VALID,0,INVALID,163.609,VALID,0,VALID,25.9992,VALID,344,VALID,0.123438,
2011-05-15, 02:26:04,VALID,1003.86,VALID,0,INVALID,163.563,VALID,0,VALID,25.9797,VALID,343,VALID,0.230859,
2011-05-15, 02:27:04,VALID,1003.86,VALID,0,INVALID,163.594,VALID,0,VALID,26.0401,VALID,348,VALID,0.64375,
2011-05-15, 02:28:04,VALID,1003.88,VALID,0,INVALID,163.601,VALID,0,VALID,26.0206,VALID,350,VALID,0.801562,
2011-05-15, 02:29:04,VALID,1003.87,VALID,0,INVALID,163.594,VALID,0,VALID,25.9992,VALID,357,VALID,0.214062,
2011-05-15, 02:30:04,VALID,1003.85,VALID,0,INVALID,163.609,VALID,0,VALID,26.0187,VALID,357,VALID,0.142969,
2011-05-15, 02:31:04,VALID,1003.85,VALID,0,INVALID,163.601,VALID,0,VALID,26.0401,VALID,348,VALID,0.314453,
2011-05-15, 02:32:04,VALID,1003.84,VALID,0,INVALID,163.632,VALID,0,VALID,26.0187,VALID,346,VALID,0.626953,
2011-05-15, 02:33:04,VALID,1003.84,VALID,0,INVALID,163.601,VALID,0,VALID,25.9992,VALID,348,VALID,0.4125,
2011-05-15, 02:34:04,VALID,1003.88,VALID,0,INVALID,163.594,VALID,0,VALID,26.0401,VALID,344,VALID,0.198828,
2011-05-15, 02:35:04,VALID,1003.89,VALID,0,INVALID,163.586,VALID,0,VALID,25.9992,VALID,345,VALID,0.433594,
2011-05-15, 02:36:04,VALID,1003.86,VALID,0,INVALID,163.601,VALID,0,VALID,25.9992,VALID,346,VALID,0.683984,
2011-05-15, 02:37:04,VALID,1003.9,VALID,0,INVALID,163.609,VALID,0,VALID,26.0012,VALID,356,VALID,0.516797,
2011-05-15, 02:38:04,VALID,1003.87,VALID,0,INVALID,163.601,VALID,0,VALID,25.9817,VALID,326,VALID,0.446484,
2011-05-15, 02:39:04,VALID,1003.92,VALID,0,INVALID,163.601,VALID,0,VALID,26.0012,VALID,326,VALID,0.211719,
2011-05-15, 02:40:04,VALID,1003.89,VALID,0,INVALID,163.586,VALID,0,VALID,25.9797,VALID,320,VALID,0.451953,
2011-05-15, 02:41:04,VALID,1003.87,VALID,0,INVALID,163.594,VALID,0,VALID,26.0012,VALID,354,VALID,0.880469,
2011-05-15, 02:42:04,VALID,1003.87,VALID,0,INVALID,163.586,VALID,0,VALID,25.9797,VALID,359,VALID,0.694141,
2011-05-15, 02:43:04,VALID,1003.85,VALID,0,INVALID,163.601,VALID,0,VALID,25.9817,VALID,358,VALID,0.208984,
2011-05-15, 02:44:04,VALID,1003.85,VALID,0,INVALID,163.594,VALID,0,VALID,26.0187,VALID,339,VALID,0.846875,
2011-05-15, 02:45:04,VALID,1003.82,VALID,0,INVALID,163.586,VALID,0,VALID,26.0576,VALID,309,VALID,0.525,
2011-05-15, 02:46:04,VALID,1003.83,VALID,0,INVALID,163.586,VALID,0,VALID,26.0771,VALID,288,VALID,0.976953,
2011-05-15, 02:47:04,VALID,1003.82,VALID,0,INVALID,163.586,VALID,0,VALID,26.1355,VALID,288,VALID,1.09727,
2011-05-15, 02:48:04,VALID,1003.84,VALID,0,INVALID,163.571,VALID,0,VALID,26.1745,VALID,273,VALID,0.357031,
2011-05-15, 02:49:04,VALID,1003.84,VALID,0,INVALID,163.578,VALID,0,VALID,26.153,VALID,273,VALID,0.04375,
2011-05-15, 02:50:04,VALID,1003.86,VALID,0,INVALID,163.586,VALID,0.100563,VALID,26.153,VALID,271,VALID,0.276953,
2011-05-15, 02:51:04,VALID,1003.86,VALID,0,INVALID,163.601,VALID,0.100563,VALID,26.1335,VALID,13,VALID,0.353906,
2011-05-15, 02:52:04,VALID,1003.89,VALID,0,INVALID,163.586,VALID,0,VALID,26.1765,VALID,283,VALID,0.492188,
2011-05-15, 02:53:04,VALID,1003.87,VALID,0,INVALID,163.586,VALID,0,VALID,26.155,VALID,283,VALID,0,
2011-05-15, 02:54:04,VALID,1003.87,VALID,0,INVALID,163.578,VALID,0.100563,VALID,26.1141,VALID,353,VALID,0.595703,
2011-05-15, 02:55:04,VALID,1003.86,VALID,0,INVALID,163.563,VALID,0.100563,VALID,26.116,VALID,354,VALID,0.552344,
2011-05-15, 02:56:04,VALID,1003.85,VALID,0,INVALID,163.563,VALID,0,VALID,26.0966,VALID,354,VALID,0.186328,
2011-05-15, 02:57:04,VALID,1003.88,VALID,0,INVALID,163.578,VALID,0,VALID,26.0771,VALID,354,VALID,0.0996094,
2011-05-15, 02:58:04,VALID,1003.85,VALID,0,INVALID,163.601,VALID,0,VALID,26.0576,VALID,341,VALID,0.596484,
2011-05-15, 02:59:04,VALID,1003.86,VALID,0,INVALID,163.578,VALID,0,VALID,26.0401,VALID,355,VALID,0.435547,
2011-05-15, 03:00:04,VALID,1003.85,VALID,0,INVALID,163.609,VALID,0,VALID,25.9992,VALID,350,VALID,0.527734,
2011-05-15, 03:01:04,VALID,1003.86,VALID,0,INVALID,163.609,VALID,0,VALID,26.0206,VALID,350,VALID,0.657812,
2011-05-15, 03:02:04,VALID,1003.86,VALID,0,INVALID,163.594,VALID,0,VALID,26.0206,VALID,344,VALID,0.622656,
2011-05-15, 03:03:04,VALID,1003.85,VALID,0,INVALID,163.578,VALID,0,VALID,26.0012,VALID,340,VALID,0.591406,
2011-05-15, 03:04:04,VALID,1003.85,VALID,0,INVALID,163.578,VALID,0,VALID,25.9642,VALID,341,VALID,0.602734,
2011-05-15, 03:05:04,VALID,1003.83,VALID,0,INVALID,163.609,VALID,0,VALID,25.8823,VALID,357,VALID,0.692578,
2011-05-15, 03:06:04,VALID,1003.83,VALID,0,INVALID,163.632,VALID,0,VALID,25.8453,VALID,358,VALID,0.588672,
2011-05-15, 03:07:04,VALID,1003.85,VALID,0,INVALID,163.617,VALID,0,VALID,25.7674,VALID,360,VALID,0.558203,
2011-05-15, 03:08:04,VALID,1003.91,VALID,0,INVALID,163.594,VALID,0,VALID,25.7694,VALID,360,VALID,0.577734,
2011-05-15, 03:09:04,VALID,1003.88,VALID,0,INVALID,163.632,VALID,0,VALID,25.6895,VALID,360,VALID,0.564453,
2011-05-15, 03:10:04,VALID,1003.91,VALID,0,INVALID,163.639,VALID,0,VALID,25.6681,VALID,356,VALID,0.569922,
2011-05-15, 03:11:04,VALID,1003.9,VALID,0,INVALID,163.601,VALID,0,VALID,25.7109,VALID,355,VALID,0.489844,
2011-05-15, 03:12:04,VALID,1003.87,VALID,0,INVALID,163.609,VALID,0,VALID,25.6311,VALID,343,VALID,0.944922,
2011-05-15, 03:13:04,VALID,1003.89,VALID,0,INVALID,163.655,VALID,0,VALID,25.67,VALID,348,VALID,0.642969,
2011-05-15, 03:14:04,VALID,1003.88,VALID,0,INVALID,163.624,VALID,0,VALID,25.7071,VALID,348,VALID,0.805078,
2011-05-15, 03:15:04,VALID,1003.88,VALID,0,INVALID,163.617,VALID,0,VALID,25.7265,VALID,349,VALID,0.667188,
2011-05-15, 03:16:04,VALID,1003.9,VALID,0,INVALID,163.609,VALID,0.100563,VALID,25.744,VALID,347,VALID,0.896875,
2011-05-15, 03:17:04,VALID,1003.86,VALID,0,INVALID,163.594,VALID,0,VALID,25.8434,VALID,350,VALID,0.806641,
2011-05-15, 03:18:04,VALID,1003.83,VALID,0,INVALID,162.426,VALID,0.100563,VALID,25.8629,VALID,347,VALID,0.800781,
2011-05-15, 03:19:04,VALID,1003.8,VALID,0,INVALID,155.187,VALID,0,VALID,25.9213,VALID,356,VALID,0.525781,
2011-05-15, 03:20:04,VALID,1003.78,VALID,0,INVALID,136.061,VALID,0,VALID,25.9408,VALID,332,VALID,0.742969,
2011-05-15, 03:21:04,VALID,1003.74,VALID,0,INVALID,130.301,VALID,0,VALID,25.9602,VALID,342,VALID,0.59375,
2011-05-15, 03:22:04,VALID,1003.76,VALID,0,INVALID,137.358,VALID,0,VALID,25.9213,VALID,2,VALID,0.948828,
2011-05-15, 03:23:04,VALID,1003.72,VALID,0,INVALID,140.143,VALID,0,VALID,25.8629,VALID,352,VALID,0.866406,
2011-05-15, 03:24:04,VALID,1003.74,VALID,0,INVALID,143.888,VALID,0.100563,VALID,25.8239,VALID,295,VALID,1.04375,
2011-05-15, 03:25:04,VALID,1003.74,VALID,0,INVALID,143.85,VALID,0,VALID,25.8434,VALID,332,VALID,0.453906,
2011-05-15, 03:26:04,VALID,1003.74,VALID,0,INVALID,144.132,VALID,0,VALID,25.8629,VALID,351,VALID,0.7,
2011-05-15, 03:27:04,VALID,1003.75,VALID,0,INVALID,135.214,VALID,0,VALID,25.8629,VALID,353,VALID,1.13828,
2011-05-15, 03:28:04,VALID,1003.75,VALID,0,INVALID,134.085,VALID,0.100563,VALID,25.8823,VALID,356,VALID,0.330859,
2011-05-15, 03:29:04,VALID,1003.76,VALID,0,INVALID,133.826,VALID,0,VALID,25.8648,VALID,352,VALID,0.891016,
2011-05-15, 03:30:04,VALID,1003.77,VALID,0,INVALID,134.81,VALID,0,VALID,25.8239,VALID,1,VALID,0.841797,
2011-05-15, 03:31:04,VALID,1003.76,VALID,0,INVALID,133.986,VALID,0,VALID,25.8453,VALID,350,VALID,1.07344,
2011-05-15, 03:32:04,VALID,1003.77,VALID,0,INVALID,137.221,VALID,0,VALID,25.8239,VALID,344,VALID,0.6,
2011-05-15, 03:33:04,VALID,1003.79,VALID,0,INVALID,140.616,VALID,0,VALID,25.8044,VALID,353,VALID,0.623438,
2011-05-15, 03:34:04,VALID,1003.83,VALID,0,INVALID,139.006,VALID,0,VALID,25.8064,VALID,337,VALID,0.848828,
2011-05-15, 03:35:04,VALID,1003.82,VALID,0,INVALID,139.258,VALID,0,VALID,25.8259,VALID,356,VALID,0.716406,
2011-05-15, 03:36:04,VALID,1003.81,VALID,0,INVALID,139.12,VALID,0,VALID,25.8064,VALID,345,VALID,0.520703,
2011-05-15, 03:37:04,VALID,1003.79,VALID,0,INVALID,138.64,VALID,0,VALID,25.785,VALID,337,VALID,1.01406,
2011-05-15, 03:38:04,VALID,1003.78,VALID,0,INVALID,138.716,VALID,0,VALID,25.8278,VALID,343,VALID,0.709766,
2011-05-15, 03:39:04,VALID,1003.75,VALID,0,INVALID,139.319,VALID,0,VALID,25.785,VALID,338,VALID,0.494531,
2011-05-15, 03:40:04,VALID,1003.73,VALID,0,INVALID,141.218,VALID,0,VALID,25.785,VALID,359,VALID,0.435156,
2011-05-15, 03:41:04,VALID,1003.73,VALID,0,INVALID,141.47,VALID,0,VALID,25.8064,VALID,13,VALID,0.391797,